Ionia, MI

10:04 PM EST on November 21, 2019 (GMT -0500)
Ionia

Weather History for KY70 - September, 2019

Change the Weather History Date:

Sunday, September 15, 2019

  Actual Average (WUND) Record (WUND)
Temperature  
Mean Temperature 66 °F -  
Max Temperature 73 °F - - (-1)
Min Temperature 59 °F - - (-1)
Cooling Degree Days 1    
Growing Degree Days 16 (Base 50)    
Moisture  
Dew Point 61 °F    
Average Humidity 80    
Maximum Humidity 95    
Minimum Humidity 60    
Precipitation  
Precipitation 0.06 in - - ()
Sea Level Pressure  
Sea Level Pressure 30.09 in    
Wind  
Wind Speed 6 mph ()    
Max Wind Speed 18 mph    
Max Gust Speed 31 mph    
Visibility 9.9 miles    
Events Rain    
Averages and records for this station are not official NWS values.
T = Trace of Precipitation, MM = Missing Value Source: Averaged Metar Reports

Daily Weather History Graph

Daily Weather History Graph

Search for Another Location

Airport or City:

Astronomy

Sep. 15, 2019 Rise Set
Actual Time 7:19 AM EDT 7:50 PM EDT
Civil Twilight 6:51 AM EDT 8:18 PM EDT
Nautical Twilight 6:17 AM EDT 8:52 PM EDT
Astronomical Twilight 5:42 AM EDT 9:27 PM EDT
Moon 8:56 PM EDT (9/15) 8:29 AM EDT (9/15)
Length of Visible Light 13h 27m
Length of Day
12h 30m
Full, 98% of the Moon is Illuminated
Sep 15
Full
Sep 21
Last Quarter
Sep 28
New
Oct 5
First Quarter
Oct 13
Full

Hourly Weather History & Observations

Time (EDT) Temp. Dew Point Humidity Pressure Visibility Wind Dir Wind Speed Gust Speed Precip Events Conditions
12:15 AM 59.5 °F 57.2 °F 92% 30.16 in 10.0 mi SE 3.5 mph - N/A   Mostly Cloudy
12:16 AM 59.5 °F 57.2 °F 92% 30.16 in 10.0 mi SE 3.5 mph - N/A   Mostly Cloudy
12:35 AM 60.3 °F 57.4 °F 90% 30.15 in 10.0 mi SE 5.8 mph - N/A   Scattered Clouds
12:36 AM 60.3 °F 57.2 °F 90% 30.15 in 10.0 mi SE 5.8 mph - N/A   Scattered Clouds
12:58 AM 59.9 °F 56.8 °F 90% 30.15 in 10.0 mi SE 4.6 mph - N/A   Scattered Clouds
1:17 AM 59.7 °F 56.7 °F 90% 30.15 in 10.0 mi SE 5.8 mph - N/A   Scattered Clouds
1:35 AM 59.9 °F 56.5 °F 88% 30.15 in 10.0 mi SE 4.6 mph - N/A   Scattered Clouds
1:55 AM 60.1 °F 56.5 °F 88% 30.15 in 10.0 mi SSE 5.8 mph - N/A   Mostly Cloudy
2:15 AM 60.4 °F 57.2 °F 89% 30.15 in 10.0 mi SSE 5.8 mph - N/A   Overcast
2:16 AM 60.4 °F 57.2 °F 89% 30.15 in 10.0 mi SSE 5.8 mph - N/A   Overcast
2:35 AM 61.0 °F 56.8 °F 86% 30.14 in 10.0 mi SSE 4.6 mph - N/A   Mostly Cloudy
2:58 AM 60.4 °F 56.8 °F 88% 30.13 in 10.0 mi South 4.6 mph - N/A   Scattered Clouds
3:16 AM 60.6 °F 57.2 °F 88% 30.12 in 10.0 mi Calm Calm - N/A   Mostly Cloudy
3:35 AM 60.8 °F 58.1 °F 91% 30.12 in 10.0 mi Calm Calm - N/A   Drizzle
3:55 AM 61.0 °F 59.0 °F 93% 30.11 in 10.0 mi SSE 3.5 mph - N/A   Overcast
4:19 AM 62.1 °F 59.2 °F 90% 30.12 in 10.0 mi South 3.5 mph - N/A   Overcast
4:37 AM 65.1 °F 60.4 °F 85% 30.11 in 10.0 mi SSW 5.8 mph - N/A   Overcast
4:55 AM 65.8 °F 60.1 °F 82% 30.11 in 10.0 mi SSW 9.2 mph - N/A   Overcast
5:15 AM 65.5 °F 60.3 °F 83% 30.11 in 10.0 mi SW 5.8 mph - N/A   Mostly Cloudy
5:16 AM 65.5 °F 60.3 °F 83% 30.11 in 10.0 mi SW 5.8 mph - N/A   Mostly Cloudy
5:35 AM 65.7 °F 60.1 °F 82% 30.11 in 10.0 mi SW 9.2 mph - N/A   Mostly Cloudy
5:40 AM 65.7 °F 60.1 °F 82% 30.11 in 10.0 mi SW 6.9 mph - N/A   Mostly Cloudy
5:58 AM 66.2 °F 59.7 °F 80% 30.10 in 10.0 mi SSW 5.8 mph - N/A   Mostly Cloudy
6:16 AM 66.2 °F 59.9 °F 80% 30.09 in 10.0 mi SSW 5.8 mph - N/A   Mostly Cloudy
6:35 AM 65.7 °F 59.7 °F 81% 30.09 in 10.0 mi SSW 6.9 mph - N/A   Scattered Clouds
6:55 AM 65.3 °F 59.4 °F 81% 30.09 in 10.0 mi SSW 5.8 mph - N/A   Scattered Clouds
6:56 AM 65.3 °F 59.4 °F 81% 30.09 in 10.0 mi SSW 5.8 mph - N/A   Scattered Clouds
7:19 AM 65.3 °F 59.2 °F 81% 30.10 in 10.0 mi SSW 5.8 mph - N/A   Scattered Clouds
7:37 AM 65.3 °F 59.2 °F 81% 30.11 in 10.0 mi SW 6.9 mph - N/A   Mostly Cloudy
7:55 AM 66.0 °F 58.8 °F 78% 30.12 in 10.0 mi SW 9.2 mph - N/A   Mostly Cloudy
7:56 AM 66.0 °F 58.6 °F 77% 30.12 in 10.0 mi SW 9.2 mph - N/A   Mostly Cloudy
8:15 AM 66.6 °F 58.5 °F 75% 30.12 in 10.0 mi SW 9.2 mph - N/A   Scattered Clouds
8:35 AM 67.6 °F 58.6 °F 73% 30.12 in 10.0 mi WSW 10.4 mph - N/A   Mostly Cloudy
8:58 AM 67.8 °F 56.7 °F 67% 30.13 in 10.0 mi SW 18.4 mph 31.1 mph N/A   Overcast
9:16 AM 64.4 °F 59.0 °F 83% 30.13 in 5.0 mi SW 11.5 mph 21.9 mph 0.04 in Rain Heavy Rain
9:35 AM 64.4 °F 61.0 °F 89% 30.13 in 10.0 mi SW 5.8 mph - 0.05 in   Overcast
9:55 AM 65.3 °F 61.0 °F 86% 30.12 in 10.0 mi South 6.9 mph - 0.05 in   Overcast
10:37 AM 68.5 °F 57.4 °F 67% 30.12 in 10.0 mi SW 11.5 mph - N/A   Mostly Cloudy
10:55 AM 69.8 °F 57.7 °F 65% 30.11 in 10.0 mi SW 9.2 mph - N/A   Overcast
10:56 AM 69.6 °F 57.7 °F 66% 30.11 in 10.0 mi SSW 9.2 mph - N/A   Overcast
11:15 AM 70.0 °F 56.7 °F 63% 30.11 in 10.0 mi SW 10.4 mph - N/A   Scattered Clouds
11:16 AM 70.2 °F 56.7 °F 62% 30.11 in 10.0 mi SW 10.4 mph - N/A   Scattered Clouds
11:35 AM 72.1 °F 58.1 °F 61% 30.10 in 10.0 mi SW 8.1 mph - N/A   Clear
11:40 AM 72.5 °F 58.1 °F 60% 30.10 in 10.0 mi SW 10.4 mph - N/A   Clear
11:58 AM 73.0 °F 58.8 °F 61% 30.10 in 10.0 mi SW 9.2 mph - N/A   Clear
12:16 PM 73.4 °F 59.0 °F 61% 30.09 in 10.0 mi SW 10.4 mph 16.1 mph N/A   Scattered Clouds
12:35 PM 73.4 °F 60.3 °F 63% 30.09 in 10.0 mi SW 15.0 mph 18.4 mph N/A   Overcast
12:36 PM 73.4 °F 60.4 °F 64% 30.09 in 10.0 mi SW 17.3 mph - N/A   Overcast
12:55 PM 72.5 °F 60.1 °F 65% 30.09 in 10.0 mi SW 16.1 mph 20.7 mph N/A   Overcast
1:18 PM 72.1 °F 60.6 °F 67% 30.09 in 10.0 mi SW 10.4 mph 31.1 mph N/A   Overcast
1:36 PM 72.3 °F 60.4 °F 66% 30.08 in 10.0 mi SW 12.7 mph - N/A   Overcast
1:55 PM 72.7 °F 61.2 °F 67% 30.08 in 10.0 mi SW 9.2 mph - N/A   Overcast
1:56 PM 72.5 °F 61.2 °F 67% 30.07 in 10.0 mi SSW 12.7 mph 17.3 mph N/A   Overcast
2:15 PM 71.6 °F 61.5 °F 70% 30.07 in 10.0 mi SSW 9.2 mph - N/A   Overcast
2:39 PM 70.3 °F 61.5 °F 74% 30.07 in 10.0 mi SSW 6.9 mph - N/A   Overcast
2:57 PM 70.9 °F 61.7 °F 73% 30.06 in 10.0 mi SW 8.1 mph - N/A   Overcast
3:15 PM 71.6 °F 61.7 °F 71% 30.06 in 10.0 mi SSW 6.9 mph - N/A   Overcast
3:36 PM 71.1 °F 61.7 °F 72% 30.05 in 10.0 mi South 4.6 mph - N/A   Overcast
3:55 PM 70.9 °F 62.1 °F 74% 30.04 in 10.0 mi South 5.8 mph - N/A   Overcast
3:59 PM 71.1 °F 62.4 °F 74% 30.04 in 10.0 mi South 4.6 mph - N/A   Overcast
4:17 PM 70.9 °F 62.6 °F 75% 30.04 in 10.0 mi SW 3.5 mph - N/A   Overcast
4:35 PM 71.1 °F 62.6 °F 75% 30.04 in 10.0 mi SW 3.5 mph - N/A   Overcast
4:55 PM 71.4 °F 62.8 °F 74% 30.04 in 10.0 mi SW 3.5 mph - N/A   Overcast
5:15 PM 71.1 °F 63.1 °F 76% 30.04 in 10.0 mi Calm Calm - N/A   Overcast
5:38 PM 70.9 °F 63.7 °F 78% 30.04 in 10.0 mi SSE 5.8 mph - N/A   Overcast
5:56 PM 70.7 °F 63.9 °F 79% 30.03 in 10.0 mi SE 3.5 mph - N/A   Overcast
6:15 PM 70.3 °F 63.9 °F 80% 30.03 in 10.0 mi ESE 4.6 mph - N/A   Overcast
6:16 PM 70.3 °F 63.9 °F 80% 30.03 in 10.0 mi ESE 4.6 mph - N/A   Overcast
6:35 PM 70.5 °F 64.2 °F 80% 30.04 in 10.0 mi SE 4.6 mph - N/A   Overcast
6:36 PM 70.7 °F 64.2 °F 80% 30.04 in 10.0 mi SE 4.6 mph - N/A   Overcast
6:59 PM 70.7 °F 64.4 °F 80% 30.04 in 10.0 mi SE 4.6 mph - N/A   Overcast
7:17 PM 70.3 °F 64.6 °F 82% 30.04 in 10.0 mi Calm Calm - N/A   Overcast
7:35 PM 70.0 °F 65.1 °F 85% 30.04 in 10.0 mi SE 3.5 mph - N/A   Overcast
7:55 PM 69.4 °F 65.5 °F 87% 30.04 in 10.0 mi Calm Calm - N/A   Overcast
8:15 PM 69.1 °F 65.7 °F 89% 30.04 in 10.0 mi East 3.5 mph - N/A   Overcast
8:38 PM 69.1 °F 65.5 °F 88% 30.04 in 10.0 mi ENE 3.5 mph - N/A   Overcast
8:55 PM 68.9 °F 65.3 °F 88% 30.04 in 10.0 mi NE 3.5 mph - N/A   Overcast
9:15 PM 68.9 °F 65.3 °F 88% 30.04 in 10.0 mi Calm Calm - N/A   Overcast
9:16 PM 68.9 °F 65.3 °F 88% 30.04 in 10.0 mi NE 3.5 mph - N/A   Overcast
9:35 PM 68.5 °F 65.7 °F 90% 30.05 in 10.0 mi Calm Calm - N/A   Drizzle
9:59 PM 67.8 °F 65.8 °F 93% 30.05 in 7.0 mi ENE 3.5 mph - N/A   Drizzle
10:17 PM 67.6 °F 65.8 °F 94% 30.05 in 10.0 mi East 3.5 mph - N/A   Overcast
10:36 PM 67.5 °F 65.8 °F 95% 30.05 in 10.0 mi Calm Calm - 0.01 in   Overcast
10:55 PM 67.5 °F 65.8 °F 95% 30.05 in 10.0 mi Calm Calm - 0.01 in   Overcast
11:38 PM 67.3 °F 65.7 °F 95% 30.05 in 10.0 mi Calm Calm - N/A   Overcast
11:56 PM 67.3 °F 65.7 °F 95% 30.05 in 10.0 mi Calm Calm - N/A   Overcast